User: anonymous   Login
Location: Unspecified
(0.0000°N, 0.0000°E)
Time: 07:54:35
(UTC+00:00)
Language:

GONETS M 10 (M20) - Orbit

View from above orbital plane
View from above orbital plane
View from above satellite
View from above satellite

Ground track
Ground track

The orbit data is extracted from the following two-line orbital elements,

1 40063U 14036C   17328.40617886 -.00000014 +00000-0 -17500-3 0  9991
2 40063 082.5095 089.5578 0022250 118.2808 242.0518 12.42897115154029
Epoch (UTC): 24 November 2017 09:44:53
Eccentricity: 0.0022250
inclination: 82.5095°
perigee height: 1477 km
apogee height: 1512 km
right ascension of ascending node: 89.5578°
argument of perigee: 118.2808°
revolutions per day: 12.42897115
mean anomaly at epoch: 242.0518°
orbit number at epoch: 15402

The dashed part of the orbit path shows where the satellite is in the earth's shadow,  

DLR